Weather History for KEWB - January, 2012

Change the Weather History Date:

Wednesday, January 25, 2012

  Actual Average Record
Temperature  
Mean Temperature 38 °F -  
Max Temperature 44 °F 40 °F 57 °F (1972)
Min Temperature 33 °F 27 °F 1 °F (2004)
Degree Days  
Heating Degree Days 26    
Moisture  
Dew Point 25 °F    
Average Humidity 60    
Maximum Humidity 70    
Minimum Humidity 47    
Precipitation  
Precipitation 0.00 in - - ()
Sea Level Pressure  
Sea Level Pressure 30.16 in    
Wind  
Wind Speed 8 mph (WNW)    
Max Wind Speed 15 mph    
Max Gust Speed 22 mph    
Visibility 10 miles    
Events      
Averages and records for this station are not official NWS values.
T = Trace of Precipitation, MM = Missing Value Source: NWS Daily Summary

Daily Weather History Graph

Daily Weather History Graph

Search for Another Location

Airport or City:

Trip Planner

Search our weather history database for the weather conditions in past years. The results will help you decide how hot, cold, wet, or windy it might be!

Date:

Astronomy

Jan. 25, 2012 Rise Set
Actual Time 7:02 AM EST 4:49 PM EST
Civil Twilight 6:32 AM EST 5:19 PM EST
Nautical Twilight 5:58 AM EST 5:53 PM EST
Astronomical Twilight 5:26 AM EST 6:26 PM EST
Moon 7:57 AM EST (1/25) 7:43 PM EST (1/25)
Length of Visible Light 10h 47m
Length of Day
9h 47m
Waxing Crescent, 6% of the Moon is Illuminated
Jan 25
Waxing Crescent
Jan 30
First Quarter
Feb 7
Full
Feb 14
Last Quarter
Feb 21
New

Hourly Weather History & Observations

Time (EST) Temp. Windchill Dew Point Humidity Pressure Visibility Wind Dir Wind Speed Gust Speed Precip Events Conditions
12:53 AM 41.0 °F 35.2 °F 30.2 °F 65% 30.06 in 10.0 mi WNW 9.2 mph - N/A   Overcast
1:53 AM 39.9 °F 34.5 °F 28.0 °F 63% 30.09 in 10.0 mi WNW 8.1 mph - N/A   Overcast
2:53 AM 37.9 °F 32.7 °F 26.1 °F 62% 30.09 in 10.0 mi West 6.9 mph - N/A   Mostly Cloudy
3:53 AM 34.0 °F 28.8 °F 24.1 °F 67% 30.12 in 10.0 mi West 5.8 mph - N/A   Clear
4:53 AM 35.1 °F 29.3 °F 23.0 °F 61% 30.13 in 10.0 mi West 6.9 mph - N/A   Clear
5:53 AM 35.1 °F 28.6 °F 23.0 °F 61% 30.14 in 10.0 mi West 8.1 mph - N/A   Clear
6:53 AM 33.1 °F 27.7 °F 24.1 °F 70% 30.17 in 10.0 mi West 5.8 mph - N/A   Clear
7:53 AM 35.6 °F 29.2 °F 24.8 °F 65% 30.18 in 10.0 mi WSW 8.1 mph - N/A   Mostly Cloudy
8:53 AM 39.0 °F 31.8 °F 25.0 °F 57% 30.20 in 10.0 mi West 11.5 mph 20.7 mph N/A   Clear
9:53 AM 41.0 °F 35.2 °F 25.0 °F 53% 30.20 in 10.0 mi WNW 9.2 mph 18.4 mph N/A   Clear
10:53 AM 42.1 °F 34.5 °F 24.1 °F 49% 30.20 in 10.0 mi West 15.0 mph 20.7 mph N/A   Clear
11:53 AM 44.1 °F 37.7 °F 25.0 °F 47% 30.18 in 10.0 mi WNW 12.7 mph - N/A   Clear
12:53 PM 42.1 °F 35.7 °F 25.0 °F 51% 30.16 in 10.0 mi West 11.5 mph - N/A   Clear
1:53 PM 43.0 °F 36.8 °F 25.0 °F 49% 30.16 in 10.0 mi NW 11.5 mph 21.9 mph N/A   Clear
2:53 PM 42.1 °F 35.2 °F 25.0 °F 51% 30.15 in 10.0 mi WNW 12.7 mph 20.7 mph N/A   Clear
3:53 PM 41.0 °F 34.3 °F 25.0 °F 53% 30.14 in 10.0 mi WNW 11.5 mph - N/A   Clear
4:53 PM 39.0 °F 36.8 °F 25.0 °F 57% 30.16 in 10.0 mi WNW 3.5 mph - N/A   Clear
5:53 PM 36.0 °F 31.1 °F 25.0 °F 64% 30.19 in 10.0 mi WNW 5.8 mph - N/A   Clear
6:53 PM 35.1 °F 31.0 °F 25.0 °F 67% 30.20 in 10.0 mi West 4.6 mph - N/A   Clear
7:53 PM 35.1 °F 29.3 °F 25.0 °F 67% 30.20 in 10.0 mi West 6.9 mph - N/A   Clear
8:53 PM 35.1 °F - 25.0 °F 67% 30.18 in 10.0 mi Calm Calm - N/A   Clear
9:53 PM 35.6 °F 30.7 °F 24.8 °F 65% 30.18 in 10.0 mi WNW 5.8 mph - N/A   Scattered Clouds
10:53 PM 35.1 °F 32.2 °F 25.0 °F 67% 30.19 in 10.0 mi WNW 3.5 mph - N/A   Mostly Cloudy
11:53 PM 34.0 °F - 25.0 °F 70% 30.17 in 10.0 mi Calm Calm - N/A   Clear